Location: Unspecified
(40.9447°N, 78.9903°W)
Time: 11:27:56
(UTC-04:00)

Tiangong 2 - Visible Passes

Search period start: 24 May 2019 00:00
Search period end: 03 June 2019 00:00
Orbit: 379 x 387 km, 42.8° (Epoch: 24 May)

Date Brightness Start Highest point End Pass type
(mag) Time Alt. Az. Time Alt. Az. Time Alt. Az.
24 May 1.5 22:21:13 10° WNW 22:24:20 60° N 22:25:37 30° ENE visible
25 May 1.6 21:21:07 10° W 21:24:14 59° N 21:27:20 10° ENE visible
25 May 1.7 22:57:55 10° WNW 23:00:24 53° WNW 23:00:24 53° WNW visible
26 May 1.2 21:57:52 10° WNW 22:01:00 69° N 22:02:58 20° E visible
26 May 3.9 23:34:41 10° W 23:35:09 13° W 23:35:09 13° W visible
27 May 1.0 22:34:33 10° WNW 22:37:39 61° SSW 22:37:41 61° SSW visible
28 May 1.0 21:34:29 10° WNW 21:37:37 89° NNE 21:40:13 14° ESE visible
28 May 3.6 23:11:32 10° W 23:12:23 15° WSW 23:12:23 15° WSW visible
29 May 1.8 22:11:13 10° W 22:14:10 38° SSW 22:14:56 32° S visible
30 May 1.2 21:11:05 10° WNW 21:14:11 63° SSW 21:17:16 10° ESE visible
30 May 3.6 22:48:50 10° WSW 22:49:40 13° SW 22:49:40 13° SW visible
31 May 2.7 21:48:02 10° W 21:50:36 23° SSW 21:52:15 15° SSE visible
02 Jun 3.5 21:25:14 10° WSW 21:26:57 14° SW 21:28:40 10° S visible
